Wind_Speed
52 53 54 55 55 55 56 58 58 59 60 61 63 64 64 64 64 65 65 66 66 67 67 67 67 67 66 66 65 64 63 62 62 61 61 60 60 59
55 56 57 57 58 59 60 61 62 62 62 63 63 64 64 64 65 65 65 65 64 64 64 64 64 63 63 62 61 61 61 61 61 60 59 59 58 58
58 60 61 61 61 62 62 62 63 62 62 62 63 63 63 64 64 63 63 62 61 61 61 61 60 60 59 59 58 58 58 58 57 56 56 56 55 54
60 60 61 62 62 61 61 61 61 60 60 60 61 62 62 62 62 61 60 60 59 59 59 58 57 56 56 55 54 54 53 52 51 51 51 50 49 49
59 59 59 59 59 59 59 58 58 58 58 58 58 58 59 59 58 58 58 58 57 56 55 53 52 51 50 49 47 46 45 45 44 44 44 44 43 44
58 58 57 57 57 57 56 56 55 55 55 54 54 53 53 53 53 52 51 51 49 47 46 45 43 42 41 39 38 38 38 38 38 39 39 39 40 41
56 55 55 55 54 53 53 52 51 51 50 49 48 48 47 46 45 43 41 40 40 39 38 37 35 33 33 32 33 33 34 35 35 36 36 37 38 39
53 52 52 52 51 49 47 46 45 44 43 42 41 39 38 37 35 34 32 31 30 30 30 29 29 28 28 28 29 30 31 31 31 32 33 34 35 36
49 48 47 45 43 42 40 40 38 37 36 34 32 31 30 28 27 26 25 25 24 24 24 25 25 25 25 26 26 27 27 28 29 29 30 31 32 33
43 41 40 38 36 35 34 32 31 29 27 26 25 24 23 22 22 21 20 20 20 20 20 21 23 23 23 23 23 24 25 26 26 27 28 29 29 30
36 34 33 32 30 28 26 25 23 23 21 20 19 18 18 18 18 18 17 18 18 19 19 20 20 21 22 21 22 23 23 24 24 26 26 27 27 27
28 27 26 25 23 21 20 19 18 18 17 17 16 15 15 15 15 16 16 16 17 17 18 18 19 19 20 21 21 22 22 22 23 24 24 25 25 25
23 21 20 18 17 16 15 14 14 14 14 14 14 14 14 14 15 15 16 17 17 17 18 18 18 18 18 19 20 20 20 21 22 22 22 22 22 22
17 16 14 13 12 11 11 11 11 11 11 12 13 13 13 14 15 16 16 17 17 17 17 16 16 16 17 18 18 19 20 20 20 20 20 20 19 18
12 11 10 10 9 9 9 10 11 11 12 12 13 14 14 15 16 16 16 16 16 16 15 15 15 16 16 16 17 17 18 18 19 19 19 18 17 15
10 9 9 10 9 10 10 11 11 12 12 13 14 15 15 16 16 16 16 16 15 15 15 15 15 15 16 16 16 17 18 17 18 18 17 16 15 13
10 10 10 10 11 11 12 12 12 13 14 15 16 16 17 16 16 16 16 16 15 15 15 15 15 15 15 16 17 18 18 18 18 18 17 16 14 12
11 11 11 12 12 12 12 13 14 14 15 16 16 17 17 17 17 16 16 16 16 16 16 16 16 17 17 17 17 18 19 19 19 18 17 17 15 13
11 12 12 12 13 13 13 14 14 15 16 16 17 17 17 17 17 17 17 17 16 17 17 17 17 18 18 17 17 18 19 20 20 19 19 18 17 15
12 13 13 13 13 13 14 14 15 16 16 17 17 17 18 18 18 17 17 16 16 17 17 17 17 17 18 18 18 19 19 20 21 20 19 19 19 19
13 13 13 13 13 14 14 15 15 16 16 16 17 18 18 18 18 18 17 17 17 17 17 17 17 18 19 20 19 20 20 21 21 21 21 21 21 21
13 13 13 13 14 14 14 15 15 16 16 17 17 17 18 17 18 18 17 17 17 17 17 18 18 18 19 20 20 20 20 21 22 21 21 21 21 21
13 13 13 13 14 15 15 15 15 16 16 17 17 17 17 17 17 17 17 17 17 17 18 18 18 18 19 19 20 20 20 20 21 21 21 21 21 22
Wind_Direction
290 290 290 288 288 287 287 287 286 285 284 284 284 283 283 282 282 282 282 282 282 282 282 282 282 281 281 281 281 280 280 280 279 279 278 276 275 273
291 290 290 288 288 287 287 287 286 285 284 284 284 284 283 283 283 283 283 283 283 283 283 282 282 281 281 281 281 280 280 279 279 278 278 276 275 273
291 291 290 290 289 288 288 287 287 286 285 284 284 284 284 284 284 284 284 283 283 283 283 283 283 282 281 281 281 280 280 279 279 278 277 276 275 273
291 291 290 290 289 289 289 288 288 288 287 286 285 285 285 285 285 284 284 284 283 283 283 283 283 282 282 282 282 281 280 279 278 278 277 276 274 272
292 292 291 291 290 290 290 290 290 289 289 288 287 287 287 286 285 285 285 285 284 284 284 283 283 283 283 282 282 282 281 280 280 279 278 276 274 272
292 292 292 292 292 291 291 291 291 291 290 290 289 289 288 288 287 287 287 286 286 286 286 285 285 284 284 284 283 283 283 283 282 281 279 277 275 274
293 293 293 293 293 292 292 293 293 292 292 291 291 291 291 291 291 290 288 287 288 288 288 287 287 287 286 286 286 286 286 285 284 283 282 280 278 276
294 294 294 294 294 294 294 294 294 294 294 294 294 293 293 294 294 293 292 292 292 292 292 292 291 291 291 291 291 291 290 288 287 287 285 283 281 278
295 295 296 296 296 296 297 297 297 297 297 297 297 297 298 297 297 297 297 296 296 295 295 295 296 297 297 295 294 294 293 292 291 291 290 287 285 281
297 297 298 298 298 299 300 300 301 301 301 302 303 303 303 304 305 305 304 303 302 301 301 302 302 302 300 299 298 297 297 297 296 295 294 292 289 285
299 299 300 300 301 302 303 305 306 309 310 311 311 310 310 311 312 313 313 311 311 310 310 309 307 306 305 305 305 305 304 304 303 302 300 297 294 290
305 305 306 306 307 309 311 313 315 317 319 321 321 320 322 323 323 321 321 320 318 317 317 315 314 312 312 312 312 312 311 310 309 308 306 303 301 297
313 313 313 314 316 318 320 322 324 327 328 329 330 332 334 333 332 330 328 326 324 322 321 320 320 319 318 319 319 318 317 316 316 316 314 311 308 304
324 325 326 328 330 332 335 338 341 345 347 348 348 347 345 341 339 338 336 333 330 329 328 327 327 326 326 325 325 326 325 324 325 325 323 320 317 313
342 347 352 356 358 1 2 1 3 4 3 2 360 357 353 350 347 345 343 341 339 338 338 338 338 338 337 336 336 337 336 336 336 335 334 332 329 326
9 16 20 22 23 19 16 16 15 13 12 9 5 1 358 356 355 355 353 352 351 350 351 351 351 350 350 350 351 351 351 349 348 347 347 346 346 344
32 32 31 31 29 27 25 23 21 17 14 11 8 6 5 4 3 2 3 3 3 3 3 3 3 4 5 6 6 5 5 4 3 1 0 0 1 2
36 35 34 32 31 31 30 28 24 20 17 14 13 12 11 10 10 11 12 13 14 15 14 14 15 16 16 15 14 15 14 14 14 14 14 14 15 17
38 38 35 33 34 34 30 26 24 21 19 18 18 17 17 16 16 16 17 19 21 22 22 22 21 20 20 21 23 24 24 24 25 25 26 28 30 32
38 37 35 36 36 32 29 26 24 22 21 21 21 21 21 20 20 21 23 25 26 27 28 28 28 29 29 31 32 31 31 30 31 33 37 40 42 43
38 37 36 36 33 31 28 25 24 23 23 24 24 23 24 24 25 26 28 30 30 31 31 32 33 34 34 35 36 36 36 36 37 40 44 46 47 47
36 36 35 34 31 29 26 25 25 24 24 24 25 25 26 27 29 30 31 33 33 34 34 35 36 37 37 37 38 38 39 41 42 45 47 49 50 52
37 36 34 32 29 27 26 27 26 25 25 26 27 28 29 30 31 32 33 34 36 37 37 38 40 40 40 40 40 42 43 44 45 48 51 53 54 54
Height
5760 5757 5754 5751 5747 5744 5741 5737 5734 5731 5727 5722 5717 5713 5710 5706 5703 5700 5697 5693 5690 5686 5683 5679 5676 5673 5670 5667 5664 5662 5659 5657 5655 5653 5652 5651 5650 5649
5746 5742 5738 5735 5731 5727 5723 5720 5716 5713 5709 5704 5699 5695 5691 5687 5684 5681 5678 5674 5671 5667 5664 5661 5657 5654 5651 5649 5646 5644 5641 5639 5636 5635 5633 5632 5631 5630
5731 5727 5723 5719 5715 5710 5706 5702 5697 5693 5690 5686 5681 5677 5673 5669 5666 5662 5659 5656 5652 5649 5646 5643 5639 5636 5634 5631 5628 5626 5623 5621 5618 5616 5615 5613 5612 5612
5716 5711 5707 5702 5697 5693 5688 5683 5679 5675 5672 5668 5663 5659 5655 5651 5648 5644 5640 5637 5634 5631 5628 5625 5622 5619 5617 5614 5611 5608 5606 5603 5601 5599 5598 5597 5595 5594
5700 5695 5690 5685 5681 5676 5671 5667 5662 5658 5654 5650 5646 5641 5637 5633 5631 5627 5623 5620 5617 5614 5611 5608 5605 5603 5600 5598 5595 5593 5590 5588 5586 5584 5582 5581 5580 5579
5684 5679 5674 5670 5665 5660 5655 5651 5646 5642 5638 5634 5630 5625 5621 5617 5614 5612 5608 5604 5601 5598 5596 5593 5591 5588 5586 5584 5583 5580 5578 5575 5573 5571 5569 5568 5566 5565
5668 5664 5659 5654 5650 5645 5641 5636 5632 5627 5623 5619 5615 5611 5607 5604 5600 5597 5594 5591 5588 5586 5584 5581 5579 5577 5576 5574 5572 5569 5567 5564 5562 5560 5557 5555 5553 5552
5654 5649 5644 5640 5636 5631 5627 5623 5619 5615 5611 5607 5603 5599 5595 5592 5589 5586 5584 5582 5580 5577 5575 5572 5570 5568 5567 5565 5562 5560 5557 5554 5552 5549 5546 5544 5541 5539
5640 5636 5631 5627 5623 5619 5615 5611 5608 5604 5601 5597 5593 5590 5587 5584 5581 5578 5576 5574 5572 5570 5568 5565 5563 5561 5559 5557 5554 5551 5549 5546 5543 5539 5536 5533 5530 5528
5628 5624 5620 5617 5613 5609 5606 5603 5599 5596 5593 5590 5587 5584 5581 5578 5576 5573 5571 5569 5566 5564 5562 5560 5557 5555 5552 5550 5547 5544 5541 5538 5534 5531 5527 5523 5520 5517
5618 5615 5611 5608 5605 5601 5599 5596 5593 5590 5587 5585 5582 5579 5577 5574 5572 5569 5567 5565 5562 5560 5558 5555 5552 5549 5546 5544 5541 5537 5534 5530 5526 5522 5518 5515 5511 5508
5610 5607 5604 5601 5599 5596 5594 5591 5589 5586 5584 5581 5579 5576 5574 5571 5569 5566 5564 5561 5559 5556 5554 5551 5548 5545 5541 5538 5535 5531 5527 5523 5520 5515 5511 5507 5503 5500
5605 5602 5599 5596 5594 5592 5590 5588 5585 5583 5581 5579 5576 5574 5572 5569 5567 5564 5561 5558 5556 5553 5550 5547 5544 5540 5537 5533 5530 5526 5522 5518 5514 5509 5505 5500 5496 5493
5601 5598 5596 5594 5592 5590 5588 5586 5584 5582 5580 5577 5575 5573 5570 5568 5565 5562 5559 5556 5552 5549 5546 5543 5540 5537 5533 5530 5526 5522 5518 5513 5509 5504 5500 5495 5491 5487
5600 5597 5595 5593 5591 5589 5588 5586 5584 5582 5579 5577 5575 5572 5570 5567 5563 5560 5556 5553 5550 5547 5543 5540 5537 5534 5530 5527 5523 5519 5514 5510 5505 5501 5496 5491 5487 5483
5600 5598 5596 5594 5592 5591 5589 5587 5585 5582 5580 5578 5575 5572 5569 5566 5562 5559 5555 5552 5548 5545 5542 5539 5535 5532 5528 5524 5520 5516 5512 5507 5503 5498 5494 5489 5485 5481
5602 5600 5598 5596 5594 5592 5590 5588 5586 5583 5581 5578 5575 5572 5568 5565 5562 5558 5555 5551 5548 5544 5541 5538 5534 5531 5527 5524 5520 5515 5511 5506 5502 5497 5493 5489 5485 5481
5604 5602 5600 5598 5596 5594 5592 5590 5587 5585 5582 5579 5576 5572 5569 5565 5562 5558 5555 5551 5548 5545 5541 5538 5534 5531 5528 5524 5520 5516 5511 5507 5502 5498 5493 5489 5486 5483
5607 5604 5602 5600 5598 5596 5594 5592 5589 5586 5583 5580 5577 5573 5570 5566 5563 5559 5556 5552 5549 5546 5542 5539 5536 5532 5529 5525 5522 5518 5513 5509 5504 5500 5496 5492 5488 5485
5609 5607 5605 5603 5601 5598 5596 5593 5591 5588 5585 5581 5578 5575 5571 5568 5564 5560 5557 5554 5551 5548 5544 5541 5538 5535 5531 5527 5524 5520 5516 5512 5507 5503 5499 5495 5492 5489
5612 5609 5607 5605 5603 5601 5598 5595 5593 5590 5586 5583 5580 5576 5573 5569 5566 5562 5559 5556 5553 5550 5547 5544 5540 5537 5533 5530 5527 5523 5519 5515 5511 5507 5503 5500 5497 5494
5614 5612 5610 5608 5605 5603 5600 5597 5595 5592 5588 5585 5582 5578 5575 5571 5568 5565 5561 5558 5555 5552 5549 5546 5543 5540 5537 5534 5530 5527 5523 5520 5516 5512 5509 5506 5503 5500
5616 5614 5612 5610 5608 5605 5602 5599 5597 5594 5590 5587 5584 5581 5577 5574 5571 5567 5564 5561 5558 5555 5552 5549 5546 5543 5540 5537 5534 5531 5527 5524 5521 5518 5515 5512 5509 5506